K5WNG Weather Reports


time (UTC)temp
C
wind
direction
speed
KPH
gust
KPH
rain 1hr
cm
rain 24hr
cm
rain mn
cm
humidity
%
barometer
mb
20260510010016 28 151 0.0 3.2 0.00 0.00 0.00 63 1008.9
20260510005516 28 136 0.0 1.6 0.00 0.00 0.00 61 1008.9
20260510005020 28 103 0.0 4.8 0.00 0.00 0.00 61 1008.9
20260510004517 29 137 0.0 1.6 0.00 0.00 0.00 60 1008.8
20260510004017 29 121 0.0 1.6 0.00 0.00 0.00 60 1008.8
20260510003517 29 132 0.0 3.2 0.00 0.00 0.00 60 1008.7
20260510003020 30 122 0.0 3.2 0.00 0.00 0.00 58 1008.7
20260510002517 30 133 0.0 1.6 0.00 0.00 0.00 57 1008.6
20260510002017 30 139 0.0 3.2 0.00 0.00 0.00 56 1008.6
20260510001520 30 143 0.0 1.6 0.00 0.00 0.00 55 1008.5
20260510001017 31 112 0.0 3.2 0.00 0.00 0.00 53 1008.5
20260510000522 31 99 0.0 1.6 0.00 0.00 0.00 52 1008.5
20260510000020 32 123 0.0 3.2 0.00 0.00 0.00 50 1008.5
20260509235517 32 96 0.0 1.6 0.00 0.00 0.00 50 1008.4
20260509235021 33 107 0.0 3.2 0.00 0.00 0.00 48 1008.4
20260509234521 33 126 0.0 3.2 0.00 0.00 0.00 47 1008.3
20260509234018 33 123 0.0 3.2 0.00 0.00 0.00 47 1008.3
20260509233518 33 134 0.0 3.2 0.00 0.00 0.00 46 1008.2
20260509233021 33 121 0.0 1.6 0.00 0.00 0.00 46 1008.2
20260509232521 33 98 1.6 3.2 0.00 0.00 0.00 46 1008.3
20260509232018 33 123 0.0 4.8 0.00 0.00 0.00 45 1008.2
20260509231518 33 106 1.6 3.2 0.00 0.00 0.00 45 1008.2
20260509231018 33 106 0.0 4.8 0.00 0.00 0.00 44 1008.2
20260509230515 33 119 0.0 3.2 0.00 0.00 0.00 44 1008.2
20260509230015 33 108 0.0 1.6 0.00 0.00 0.00 44 1008.2
20260509225518 33 97 1.6 3.2 0.00 0.00 0.00 44 1008.3
20260509225019 33 104 1.6 3.2 0.00 0.00 0.00 44 1008.3
20260509224516 33 131 1.6 4.8 0.00 0.00 0.00 44 1008.3
20260509224020 34 147 0.0 3.2 0.00 0.00 0.00 43 1008.3
20260509223518 34 131 0.0 3.2 0.00 0.00 0.00 43 1008.3
20260509223016 33 114 1.6 3.2 0.00 0.00 0.00 42 1008.3
20260509222515 33 117 0.0 1.6 0.00 0.00 0.00 42 1008.2
20260509222016 33 123 0.0 3.2 0.00 0.00 0.00 42 1008.2
20260509221516 33 117 0.0 4.8 0.00 0.00 0.00 42 1008.2
20260509221016 33 115 1.6 4.8 0.00 0.00 0.00 42 1008.2
20260509220519 33 124 1.6 4.8 0.00 0.00 0.00 41 1008.3
20260509220016 33 121 1.6 3.2 0.00 0.00 0.00 41 1008.3
20260509215519 33 134 1.6 4.8 0.00 0.00 0.00 41 1008.3
20260509215017 34 106 0.0 3.2 0.00 0.00 0.00 41 1008.3
20260509214516 34 113 1.6 3.2 0.00 0.00 0.00 42 1008.4
20260509214017 34 112 1.6 3.2 0.00 0.00 0.00 42 1008.3
20260509213520 34 126 1.6 3.2 0.00 0.00 0.00 42 1008.4
20260509213017 34 98 1.6 6.4 0.00 0.00 0.00 42 1008.5
20260509212517 34 117 1.6 3.2 0.00 0.00 0.00 42 1008.5
20260509212020 34 85 0.0 3.2 0.00 0.00 0.00 43 1008.6
20260509211517 33 101 1.6 3.2 0.00 0.00 0.00 44 1008.7
20260509211020 33 118 0.0 3.2 0.00 0.00 0.00 44 1008.7
20260509210517 33 31 1.6 4.8 0.00 0.00 0.00 41 1008.8
20260509210017 33 37 1.6 4.8 0.00 0.00 0.00 41 1008.9
20260509205517 33 99 1.6 4.8 0.00 0.00 0.00 42 1008.9
20260509205017 33 114 1.6 3.2 0.00 0.00 0.00 43 1009.0
20260509204517 33 94 0.0 3.2 0.00 0.00 0.00 42 1009.0
20260509204018 32 148 0.0 3.2 0.00 0.00 0.00 41 1009.1
20260509203518 32 145 1.6 3.2 0.00 0.00 0.00 42 1009.2
20260509203021 32 81 1.6 3.2 0.00 0.00 0.00 43 1009.2
20260509202518 31 103 0.0 3.2 0.00 0.00 0.00 44 1009.2
20260509202020 31 113 1.6 4.8 0.00 0.00 0.00 45 1009.4
20260509201521 31 130 1.6 3.2 0.00 0.00 0.00 45 1009.5
20260509201021 30 107 1.6 4.8 0.00 0.00 0.00 47 1009.8
20260509200523 30 118 1.6 3.2 0.00 0.00 0.00 47 1009.9
20260509200019 30 121 1.6 6.4 0.00 0.00 0.00 45 1010.0
20260509195515 30 147 1.6 6.4 0.00 0.00 0.00 45 1010.1
20260509195023 30 120 1.6 4.8 0.00 0.00 0.00 47 1010.0
20260509194515 31 134 1.6 4.8 0.00 0.00 0.00 46 1010.0
20260509194018 32 106 1.6 6.4 0.00 0.00 0.00 47 1010.0
20260509193515 33 102 0.0 3.2 0.00 0.00 0.00 48 1009.9
20260509193018 33 90 1.6 3.2 0.00 0.00 0.00 49 1009.7
20260509192518 33 352 1.6 8.0 0.00 0.00 0.00 48 1009.6
20260509192017 33 335 1.6 6.4 0.00 0.00 0.00 48 1009.7
20260509191516 33 32 1.6 6.4 0.00 0.00 0.00 50 1009.6
20260509191016 33 320 1.6 9.7 0.00 0.00 0.00 49 1009.7
20260509190516 33 57 1.6 4.8 0.00 0.00 0.00 49 1009.7
20260509190019 33 359 3.2 8.0 0.00 0.00 0.00 48 1009.7
20260509185516 33 269 0.0 6.4 0.00 0.00 0.00 50 1009.8
20260509185020 33 323 1.6 6.4 0.00 0.00 0.00 51 1009.9
20260509184516 33 321 1.6 6.4 0.00 0.00 0.00 50 1010.0
20260509184016 33 295 1.6 8.0 0.00 0.00 0.00 52 1010.1
20260509183519 33 113 1.6 4.8 0.00 0.00 0.00 52 1010.2
20260509183016 32 59 1.6 6.4 0.00 0.00 0.00 52 1010.3
20260509182519 32 7 1.6 6.4 0.00 0.00 0.00 53 1010.3
20260509182016 32 38 1.6 8.0 0.00 0.00 0.00 56 1010.4
20260509181517 31 305 1.6 4.8 0.00 0.00 0.00 58 1010.5
20260509181021 31 333 1.6 8.0 0.00 0.00 0.00 60 1010.6
20260509180520 31 54 1.6 6.4 0.00 0.00 0.00 61 1010.5
20260509180017 31 50 1.6 4.8 0.00 0.00 0.00 61 1010.6
20260509175520 31 253 1.6 4.8 0.00 0.00 0.00 61 1010.6
20260509175016 31 278 1.6 6.4 0.00 0.00 0.00 61 1010.6
20260509174517 31 302 1.6 6.4 0.00 0.00 0.00 62 1010.6
20260509174017 31 293 0.0 6.4 0.00 0.00 0.00 61 1010.7
20260509173520 31 55 1.6 6.4 0.00 0.00 0.00 62 1010.9
20260509173018 31 17 3.2 8.0 0.00 0.00 0.00 63 1011.1
20260509172518 31 47 1.6 9.7 0.00 0.00 0.00 64 1011.2
20260509172018 31 155 0.0 3.2 0.00 0.00 0.00 65 1011.2
20260509171517 31 25 1.6 8.0 0.00 0.00 0.00 65 1011.2
20260509171017 30 329 1.6 6.4 0.00 0.00 0.00 66 1011.2
20260509170518 30 38 1.6 6.4 0.00 0.00 0.00 67 1011.3
20260509170018 30 353 1.6 6.4 0.00 0.00 0.00 67 1011.2
20260509165522 30 264 1.6 9.7 0.00 0.00 0.00 68 1011.2
20260509165022 30 264 1.6 6.4 0.00 0.00 0.00 69 1011.2
20260509164521 30 327 3.2 8.0 0.00 0.00 0.00 69 1011.2
20260509164015 29 281 1.6 9.7 0.00 0.00 0.00 69 1011.2
20260509163518 29 255 1.6 6.4 0.00 0.00 0.00 71 1011.2
20260509163015 28 272 1.6 8.0 0.00 0.00 0.00 71 1011.2
20260509162518 28 281 3.2 8.0 0.00 0.00 0.00 71 1011.2
20260509162018 28 242 1.6 4.8 0.00 0.00 0.00 73 1011.2
20260509161518 28 247 1.6 8.0 0.00 0.00 0.00 73 1011.2
20260509161015 28 273 1.6 4.8 0.00 0.00 0.00 75 1011.3
20260509160516 28 249 1.6 8.0 0.00 0.00 0.00 76 1011.3
20260509160018 27 263 1.6 6.4 0.00 0.00 0.00 77 1011.2
20260509155518 27 271 1.6 8.0 0.00 0.00 0.00 77 1011.3
20260509155019 27 120 1.6 4.8 0.00 0.00 0.00 78 1011.4
20260509154516 26 110 1.6 4.8 0.00 0.00 0.00 80 1011.5
20260509154019 26 149 1.6 3.2 0.00 0.00 0.00 83 1011.5
20260509153516 25 139 1.6 4.8 0.00 0.00 0.00 84 1011.4
20260509153019 25 207 1.6 8.0 0.00 0.00 0.00 84 1011.2
20260509152519 25 155 1.6 4.8 0.00 0.00 0.00 85 1011.2
20260509152016 25 225 1.6 8.0 0.00 0.00 0.00 86 1011.1
20260509151519 25 178 0.0 3.2 0.00 0.00 0.00 86 1011.0
20260509151016 25 221 0.0 4.8 0.00 0.00 0.00 86 1011.0
20260509150519 25 178 0.0 1.6 0.00 0.00 0.00 87 1011.0
20260509150019 25 192 1.6 3.2 0.00 0.00 0.00 87 1011.1
20260509145516 25 235 1.6 8.0 0.00 0.00 0.00 87 1011.1
20260509145016 25 195 1.6 8.0 0.00 0.00 0.00 86 1011.0
20260509144517 25 241 1.6 6.4 0.00 0.00 0.00 87 1010.8
20260509144021 25 147 1.6 4.8 0.00 0.00 0.00 87 1010.9
20260509143516 25 212 1.6 4.8 0.00 0.00 0.00 87 1010.9
20260509143021 25 167 0.0 4.8 0.00 0.00 0.00 88 1010.9
20260509142517 25 241 1.6 9.7 0.00 0.00 0.00 88 1010.7
20260509142020 25 183 1.6 4.8 0.00 0.00 0.00 89 1010.5
20260509141517 24 179 1.6 3.2 0.00 0.00 0.00 90 1010.4
20260509141017 24 164 1.6 3.2 0.00 0.00 0.00 90 1010.4
20260509140517 24 138 1.6 3.2 0.00 0.00 0.00 90 1010.3
20260509140020 23 156 0.0 3.2 0.00 0.00 0.00 91 1010.1
20260509135530 23 136 1.6 1.6 0.00 0.00 0.00 91 1010.1
20260509135026 23 153 0.0 1.6 0.00 0.00 0.00 93 1010.2
20260509134529 23 110 0.0 1.6 0.00 0.00 0.00 95 1010.4
20260509134029 22 186 0.0 4.8 0.00 0.00 0.00 97 1010.4
20260509133530 22 147 0.0 1.6 0.00 0.00 0.00 98 1010.4
20260509133027 22 161 0.0 1.6 0.00 0.00 0.00 99 1010.4
20260509132531 22 153 0.0 1.6 0.00 0.00 0.00 100 1010.6
20260509132026 22 157 0.0 1.6 0.00 0.00 0.00 100 1010.7
20260509131527 21 185 0.0 1.6 0.00 0.00 0.00 100 1010.8
20260509131030 21 197 1.6 1.6 0.00 0.00 0.00 100 1011.0
20260509130530 21 251 0.0 3.2 0.00 0.00 0.00 100 1011.2
20260509130030 21 276 0.0 1.6 0.00 0.00 0.00 100 1011.3
20260509125527 21 147 0.0 1.6 0.00 0.00 0.00 100 1011.2
20260509125030 21 138 0.0 1.6 0.00 0.00 0.00 100 1011.0
20260509124530 21 161 0.0 0.0 0.00 0.00 0.00 100 1011.0
20260509124027 21 194 0.0 1.6 0.00 0.00 0.00 100 1010.8
20260509123530 21 239 0.0 1.6 0.00 0.00 0.00 100 1010.7
20260509123031 21 0.0 0.0 0.00 0.00 0.00 100 1010.7
20260509122530 21 192 0.0 1.6 0.00 0.00 0.00 100 1010.6
20260509122031 21 197 1.6 1.6 0.00 0.00 0.00 100 1010.7
20260509121528 21 215 0.0 1.6 0.00 0.00 0.00 100 1010.7
20260509121028 21 111 0.0 1.6 0.00 0.00 0.00 100 1010.5
20260509120528 21 201 0.0 1.6 0.00 0.00 0.00 100 1010.4
20260509120028 21 0.0 0.0 0.00 0.00 0.00 100 1010.4
20260509115528 21 185 0.0 0.0 0.00 0.00 0.00 100 1010.5
20260509115028 21 0.0 0.0 0.00 0.00 0.00 100 1010.8
20260509114531 21 231 0.0 1.6 0.00 0.00 0.00 100 1011.0
20260509114031 21 41 0.0 1.6 0.00 0.00 0.00 100 1011.1
20260509113528 21 135 0.0 1.6 0.00 0.00 0.00 100 1011.3
20260509113031 21 35 0.0 1.6 0.00 0.00 0.00 100 1011.5
20260509112529 21 39 0.0 1.6 0.00 0.00 0.00 100 1011.6
20260509112031 21 288 1.6 3.2 0.00 0.00 0.00 100 1011.7
20260509111521 21 232 1.6 3.2 0.00 0.00 0.00 100 1011.7
20260509111021 21 247 0.0 4.8 0.00 0.00 0.00 100 1011.7
20260509110520 21 15 0.0 4.8 0.00 0.00 0.00 100 1011.8
20260509110020 21 157 0.0 1.6 0.00 0.00 0.00 100 1011.8
20260509105517 21 149 0.0 0.0 0.00 0.00 0.00 100 1011.8
20260509105017 21 161 0.0 1.6 0.00 0.00 0.00 100 1011.8
20260509104517 21 65 0.0 3.2 0.00 0.00 0.00 100 1011.8
20260509104017 21 79 0.0 1.6 0.00 0.00 0.00 100 1011.8
20260509103517 21 172 0.0 0.0 0.00 0.00 0.00 100 1011.8
20260509103021 21 233 0.0 0.0 0.00 0.00 0.00 100 1011.9
20260509102522 21 178 0.0 0.0 0.00 0.00 0.00 100 1011.9
20260509102021 21 186 0.0 0.0 0.00 0.00 0.00 100 1011.8
20260509101521 21 351 0.0 3.2 0.00 0.00 0.00 100 1011.7
20260509101022 21 69 0.0 3.2 0.00 0.00 0.00 100 1011.5
20260509100518 21 59 0.0 3.2 0.00 0.00 0.00 100 1011.3
20260509100021 21 36 0.0 4.8 0.00 0.00 0.00 99 1011.0
20260509095518 21 69 0.0 1.6 0.00 0.00 0.00 99 1010.9
20260509095021 21 62 0.0 3.2 0.00 0.00 0.00 99 1010.6
20260509094521 21 107 0.0 1.6 0.00 0.00 0.00 99 1010.5
20260509094018 21 173 0.0 1.6 0.00 0.00 0.00 99 1010.4
20260509093518 21 154 0.0 1.6 0.00 0.00 0.00 99 1010.4
20260509093020 21 183 0.0 0.0 0.00 0.00 0.00 99 1010.3
20260509092515 21 177 0.0 1.6 0.00 0.00 0.00 99 1010.2
20260509092015 21 192 0.0 1.6 0.00 0.00 0.00 99 1010.2
20260509091518 21 129 0.0 1.6 0.00 0.00 0.00 99 1010.2
20260509091015 21 124 0.0 1.6 0.00 0.00 0.00 99 1010.3
20260509090516 21 202 0.0 1.6 0.00 0.00 0.00 99 1010.3
20260509090019 21 140 0.0 1.6 0.00 0.00 0.00 99 1010.3
20260509085516 21 164 0.0 0.0 0.00 0.00 0.00 98 1010.3
20260509085016 21 157 0.0 1.6 0.00 0.00 0.00 98 1010.4
20260509084519 21 132 0.0 1.6 0.00 0.00 0.00 98 1010.4
20260509084019 21 180 0.0 1.6 0.00 0.00 0.00 98 1010.5
20260509083517 21 124 0.0 1.6 0.00 0.00 0.00 98 1010.6
20260509083016 21 136 0.0 1.6 0.00 0.00 0.00 98 1010.7
20260509082516 21 177 0.0 1.6 0.00 0.00 0.00 98 1010.8
20260509082016 21 147 0.0 1.6 0.00 0.00 0.00 98 1010.8
20260509081516 22 65 0.0 1.6 0.00 0.00 0.00 97 1010.9
20260509081019 22 21 0.0 1.6 0.00 0.00 0.00 97 1010.8
20260509080516 22 137 0.0 1.6 0.00 0.00 0.00 97 1010.7
20260509080021 22 183 0.0 0.0 0.00 0.00 0.00 97 1010.7
20260509075517 22 172 0.0 0.0 0.00 0.00 0.00 97 1010.7
20260509075020 22 161 0.0 1.6 0.00 0.00 0.00 96 1010.8
20260509074517 22 147 0.0 1.6 0.00 0.00 0.00 96 1010.8
20260509074017 22 223 0.0 1.6 0.00 0.00 0.00 96 1010.8
20260509073520 22 166 0.0 1.6 0.00 0.00 0.00 96 1010.9
20260509073017 22 175 0.0 1.6 0.00 0.00 0.00 96 1010.9
20260509072517 22 154 0.0 1.6 0.00 0.00 0.00 95 1011.0
20260509072017 22 188 0.0 0.0 0.00 0.00 0.00 95 1011.1
20260509071517 22 120 0.0 1.6 0.00 0.00 0.00 95 1011.1
20260509071020 22 185 0.0 0.0 0.00 0.00 0.00 95 1011.2
20260509070520 22 138 0.0 1.6 0.00 0.00 0.00 95 1011.1
20260509070017 22 255 0.0 1.6 0.00 0.00 0.00 95 1011.1
20260509065517 22 150 0.0 3.2 0.00 0.00 0.00 94 1011.1
20260509065022 22 155 0.0 1.6 0.00 0.00 0.00 94 1010.8
20260509064521 22 158 0.0 1.6 0.00 0.00 0.00 94 1010.6
20260509064018 22 169 0.0 1.6 0.00 0.00 0.00 94 1010.7
20260509063518 22 180 0.0 1.6 0.00 0.00 0.00 94 1010.8
20260509063018 22 91 0.0 3.2 0.00 0.00 0.00 93 1010.9
20260509062518 22 151 0.0 3.2 0.00 0.00 0.00 93 1010.9
20260509062015 22 157 0.0 1.6 0.00 0.00 0.00 93 1010.8
20260509061515 22 148 0.0 1.6 0.00 0.00 0.00 93 1010.6
20260509061015 22 157 0.0 3.2 0.00 0.00 0.00 93 1010.5
20260509060518 22 147 0.0 1.6 0.00 0.00 0.00 93 1010.3
20260509060018 22 155 0.0 3.2 0.00 0.00 0.00 92 1010.2
20260509055521 22 146 0.0 4.8 0.00 0.00 0.00 92 1010.3
20260509055018 22 140 1.6 3.2 0.00 0.00 0.00 92 1010.5
20260509054516 22 162 1.6 3.2 0.00 0.00 0.00 92 1010.5
20260509054016 22 156 1.6 4.8 0.00 0.00 0.00 92 1010.3
20260509053516 22 179 0.0 3.2 0.00 0.00 0.00 92 1010.1
20260509053016 22 171 1.6 3.2 0.00 0.00 0.00 92 1009.9
20260509052516 22 169 0.0 3.2 0.00 0.00 0.00 91 1009.8
20260509052019 22 201 1.6 4.8 0.00 0.00 0.00 91 1009.7
20260509051516 22 149 1.6 4.8 0.00 0.00 0.00 91 1009.6
20260509051016 22 147 1.6 3.2 0.00 0.00 0.00 91 1009.7
20260509050516 22 155 0.0 1.6 0.00 0.00 0.00 90 1009.7
20260509050017 23 144 0.0 3.2 0.00 0.00 0.00 90 1009.6
20260509045516 23 157 0.0 3.2 0.00 0.00 0.00 90 1009.7
20260509045017 23 173 1.6 4.8 0.00 0.00 0.00 90 1009.8
20260509044517 22 156 1.6 3.2 0.00 0.00 0.00 90 1009.8
20260509044020 22 147 1.6 1.6 0.00 0.00 0.00 90 1009.9
20260509043517 22 144 1.6 3.2 0.00 0.00 0.00 90 1009.9
20260509043021 22 167 0.0 1.6 0.00 0.00 0.00 90 1010.0
20260509042518 22 179 0.0 1.6 0.00 0.00 0.00 90 1010.1
20260509042020 22 144 0.0 3.2 0.00 0.00 0.00 90 1010.2
20260509041518 22 151 1.6 3.2 0.00 0.00 0.00 90 1010.2
20260509041017 22 159 0.0 3.2 0.00 0.00 0.00 90 1010.3
20260509040517 22 166 0.0 1.6 0.00 0.00 0.00 90 1010.3
20260509040021 22 144 0.0 3.2 0.00 0.00 0.00 90 1010.2
20260509035520 22 140 0.0 3.2 0.00 0.00 0.00 90 1010.0
20260509035018 22 152 0.0 1.6 0.00 0.00 0.00 90 1010.0
20260509034521 22 165 0.0 3.2 0.00 0.00 0.00 90 1009.9
20260509034021 22 163 0.0 1.6 0.00 0.00 0.00 90 1009.9
20260509033518 22 157 0.0 3.2 0.00 0.00 0.00 90 1009.9
20260509033015 22 149 0.0 1.6 0.00 0.00 0.00 90 1009.8
20260509032521 22 177 0.0 1.6 0.00 0.00 0.00 90 1009.9
20260509032018 22 176 0.0 1.6 0.00 0.00 0.00 90 1009.9
20260509031515 22 160 0.0 1.6 0.00 0.00 0.00 90 1009.9
20260509031018 22 166 0.0 1.6 0.00 0.00 0.00 89 1009.9
20260509030515 22 193 0.0 1.6 0.00 0.00 0.00 89 1009.9
20260509030018 22 159 0.0 3.2 0.00 0.00 0.00 88 1009.8
20260509025516 22 177 0.0 1.6 0.00 0.00 0.00 88 1009.8
20260509025015 22 139 0.0 1.6 0.00 0.00 0.00 88 1009.7
20260509024519 22 182 0.0 1.6 0.00 0.00 0.00 87 1009.6
20260509024018 22 101 0.0 4.8 0.00 0.00 0.00 87 1009.5
20260509023516 23 176 0.0 3.2 0.00 0.00 0.00 87 1009.5
20260509023017 23 161 0.0 3.2 0.00 0.00 0.00 87 1009.4
20260509022516 23 163 0.0 3.2 0.00 0.00 0.00 86 1009.4
20260509022019 23 167 0.0 3.2 0.00 0.00 0.00 86 1009.3
20260509021520 23 152 0.0 3.2 0.00 0.00 0.00 85 1009.2
20260509021016 23 154 0.0 1.6 0.00 0.00 0.00 85 1009.1
20260509020520 23 142 0.0 3.2 0.00 0.00 0.00 84 1009.1
20260509020016 23 147 0.0 1.6 0.00 0.00 0.00 84 1009.0
20260509015516 23 145 1.6 3.2 0.00 0.00 0.00 84 1009.0
20260509015016 24 142 1.6 4.8 0.00 0.00 0.00 83 1008.9
20260509014520 24 149 1.6 3.2 0.00 0.00 0.00 83 1008.9
20260509014021 24 154 0.0 3.2 0.00 0.00 0.00 82 1008.8
20260509013516 24 144 0.0 3.2 0.00 0.00 0.00 82 1008.8
20260509013025 24 153 0.0 1.6 0.00 0.00 0.00 82 1008.8
20260509012517 24 161 0.0 1.6 0.00 0.00 0.00 81 1008.9
20260509012020 25 178 0.0 3.2 0.00 0.00 0.00 81 1008.9
20260509011517 25 151 1.6 3.2 0.00 0.00 0.00 81 1008.8
20260509011020 25 166 0.0 3.2 0.00 0.00 0.00 80 1008.8
20260509010520 25 139 0.0 4.8 0.00 0.00 0.00 80 1008.8